Location: Kellogg
(38.0159°N, 90.0546°W)
Time: 10:44:42
(UTC+00:00)

Vanguard 2 Rocket - All Passes

Search period start: 07 September 2024 00:00
Search period end: 17 September 2024 00:00
Orbit: 553 x 3301 km, 32.9° (Epoch: 06 September)

Date Brightness Start Highest point End Pass type
(mag) Time Alt. Az. Time Alt. Az. Time Alt. Az.
07 Sep - 06:23:13 10° SSE 06:30:43 19° SE 06:40:24 10° E visible
07 Sep - 08:31:06 10° SW 08:44:00 50° SSE 09:02:26 10° E visible
07 Sep - 10:43:58 10° WSW 11:00:41 73° S 11:20:46 10° E visible
07 Sep - 12:59:36 10° W 13:19:00 71° SSW 13:36:58 10° ESE daylight
07 Sep - 15:17:27 10° W 15:35:45 45° SW 15:49:52 10° SSE daylight
07 Sep - 17:40:46 10° W 17:49:17 15° SW 17:56:25 10° SSW daylight
08 Sep - 07:28:58 10° SSW 07:39:47 38° SE 07:55:42 10° E visible
08 Sep - 09:40:19 10° WSW 09:55:02 67° SSE 10:15:05 10° E visible
08 Sep - 11:54:48 10° W 12:12:59 75° S 12:32:25 10° ESE daylight
08 Sep - 14:11:29 10° W 14:30:43 56° SSW 14:46:55 10° SE daylight
08 Sep - 16:31:29 10° W 16:45:38 26° SW 16:56:50 10° S daylight
09 Sep - 06:27:45 10° S 06:36:15 25° SE 06:48:15 10° E visible
09 Sep - 08:37:15 10° SW 08:49:57 58° SSE 09:08:54 10° E visible
09 Sep - 10:50:32 10° WSW 11:06:59 75° S 11:27:13 10° E visible
09 Sep - 13:06:08 10° W 13:25:08 65° SSW 13:43:12 10° ESE daylight
09 Sep - 15:24:15 10° W 15:41:24 37° SW 15:55:17 10° SSE daylight
10 Sep - 05:28:27 10° SSE 05:33:16 14° SE 05:39:07 10° E visible
10 Sep - 07:34:49 10° SW 07:45:34 46° SSE 08:02:18 10° E visible
10 Sep - 09:46:48 10° WSW 10:01:16 72° S 10:21:26 10° E visible
10 Sep - 12:01:22 10° W 12:19:14 71° SSW 12:38:43 10° ESE daylight
10 Sep - 14:18:05 10° W 14:36:31 48° SSW 14:52:40 10° SE daylight
10 Sep - 16:39:40 10° W 16:51:02 19° SW 17:00:43 10° SSW daylight
11 Sep - 06:33:05 10° SSW 06:41:53 33° SE 06:55:18 10° E visible
11 Sep - 08:43:36 10° WSW 08:56:04 65° SSE 09:15:13 10° E visible
11 Sep - 10:57:07 10° W 11:13:16 74° S 11:33:32 10° ESE visible
11 Sep - 13:12:41 10° W 13:31:06 58° SSW 13:49:09 10° SE daylight
11 Sep - 15:31:25 10° W 15:46:54 29° SW 16:00:07 10° S daylight
12 Sep - 05:32:24 10° S 05:38:47 20° SE 05:47:36 10° E visible
12 Sep - 07:40:57 10° SW 07:51:31 54° SSE 08:08:40 10° E visible
12 Sep - 09:53:22 10° WSW 10:07:33 74° S 10:27:44 10° E visible
12 Sep - 12:07:56 10° W 12:25:21 66° SSW 12:44:48 10° ESE daylight
12 Sep - 14:24:51 10° W 14:42:10 40° SW 14:57:57 10° SSE daylight
12 Sep - 16:50:08 10° WSW 16:56:25 12° SW 17:02:15 10° SSW daylight
13 Sep - 06:38:52 10° SSW 06:47:39 41° SE 07:01:55 10° E visible
13 Sep - 08:50:06 10° WSW 09:02:17 70° SSE 09:21:28 10° E visible
13 Sep - 11:03:43 10° W 11:19:30 71° S 11:39:41 10° ESE visible
13 Sep - 13:19:19 10° W 13:36:56 50° SSW 13:54:43 10° SE daylight
13 Sep - 15:39:17 10° W 15:52:18 22° SW 16:04:02 10° S daylight
14 Sep - 05:37:30 10° S 05:44:26 27° SE 05:54:53 10° E visible
14 Sep - 07:47:17 10° WSW 07:57:37 61° SSE 08:14:55 10° E visible
14 Sep - 09:59:58 10° W 10:13:50 74° S 10:33:55 10° ESE visible
14 Sep - 12:14:31 10° W 12:31:21 59° SSW 12:50:36 10° SE daylight
14 Sep - 14:31:57 10° W 14:47:42 32° SW 15:02:38 10° SSE daylight
15 Sep - 04:37:36 10° SSE 04:41:44 15° SE 04:46:54 10° E visible
15 Sep - 06:44:57 10° SW 06:53:36 49° SSE 07:08:17 10° E visible
15 Sep - 08:56:40 10° WSW 09:08:35 72° S 09:27:38 10° E visible
15 Sep - 11:10:19 10° W 11:25:39 66° SSW 11:45:38 10° ESE visible
15 Sep - 13:26:05 10° W 13:42:38 41° SSW 13:59:50 10° SSE daylight
15 Sep - 15:48:43 10° WSW 15:57:43 15° SW 16:06:13 10° SSW daylight
16 Sep - 05:43:10 10° SSW 05:50:13 34° SE 06:01:37 10° E visible
16 Sep - 07:53:46 10° WSW 08:03:51 67° SSE 08:21:06 10° E visible
16 Sep - 10:06:35 10° W 10:20:06 71° S 10:39:58 10° ESE visible
16 Sep - 12:21:09 10° W 12:37:14 51° SSW 12:56:01 10° SE daylight
16 Sep - 14:39:38 10° W 14:53:11 24° SW 15:06:29 10° S daylight
